📊 Raw Sensor Data
Showing records 38451 to 38475 of 84,930 total
| ID | Distance (ft) | Battery V | Battery A | Int Temp (°F) | Int Humid (%) | Ext Temp (°F) | Solar V | RSSI | SNR | Time Stamp |
|---|---|---|---|---|---|---|---|---|---|---|
| 46492 | 15.0 | 4.04 | 6 | 79 | 52 | 73 | 4.50 | -69 | 8 | 07/16/2025 07:45 PM |
| 46491 | 15.0 | 4.05 | 10 | 82 | 51 | 75 | 4.50 | -71 | 8 | 07/16/2025 07:30 PM |
| 46490 | 15.0 | 3.97 | -12 | 84 | 51 | 78 | 4.60 | -70 | 8 | 07/16/2025 07:15 PM |
| 46489 | 15.0 | 4.00 | 13 | 86 | 51 | 79 | 4.50 | -72 | 7 | 07/16/2025 07:00 PM |
| 46488 | 15.1 | 3.97 | 0 | 86 | 51 | 79 | 5.10 | -70 | 8 | 07/16/2025 06:45 PM |
| 46487 | 15.1 | 3.97 | 0 | 88 | 50 | 80 | 5.10 | -69 | 8 | 07/16/2025 06:30 PM |
| 46486 | 15.1 | 3.97 | 0 | 89 | 49 | 80 | 5.10 | -71 | 8 | 07/16/2025 06:15 PM |
| 46485 | 15.1 | 3.97 | 0 | 90 | 49 | 83 | 5.10 | -70 | 8 | 07/16/2025 06:00 PM |
| 46484 | 15.1 | 3.97 | 0 | 90 | 49 | 82 | 5.10 | -71 | 8 | 07/16/2025 05:45 PM |
| 46483 | 15.1 | 4.00 | 0 | 92 | 47 | 84 | 5.10 | -70 | 8 | 07/16/2025 05:30 PM |
| 46482 | 15.1 | 3.97 | 0 | 92 | 47 | 83 | 5.10 | -71 | 8 | 07/16/2025 05:15 PM |
| 46481 | 15.1 | 3.97 | 0 | 93 | 46 | 84 | 5.10 | -69 | 8 | 07/16/2025 05:00 PM |
| 46480 | 15.1 | 3.99 | 0 | 93 | 45 | 85 | 5.10 | -72 | 8 | 07/16/2025 04:45 PM |
| 46479 | 15.1 | 3.97 | 0 | 92 | 45 | 84 | 5.10 | -71 | 8 | 07/16/2025 04:30 PM |
| 46478 | 15.1 | 4.00 | 0 | 92 | 44 | 84 | 5.10 | -71 | 8 | 07/16/2025 04:15 PM |
| 46477 | 15.1 | 3.98 | 0 | 91 | 44 | 84 | 5.10 | -70 | 8 | 07/16/2025 04:00 PM |
| 46476 | 15.1 | 3.97 | 0 | 90 | 43 | 80 | 5.10 | -71 | 7 | 07/16/2025 03:45 PM |
| 46475 | 15.1 | 3.97 | 0 | 89 | 43 | 82 | 5.10 | -71 | 8 | 07/16/2025 03:30 PM |
| 46474 | 15.1 | 3.97 | 0 | 88 | 43 | 81 | 5.10 | -70 | 8 | 07/16/2025 03:15 PM |
| 46473 | 15.1 | 3.97 | 0 | 88 | 43 | 81 | 5.10 | -71 | 8 | 07/16/2025 03:00 PM |
| 46472 | 15.1 | 3.97 | 0 | 87 | 42 | 81 | 5.10 | -72 | 8 | 07/16/2025 02:45 PM |
| 46471 | 15.1 | 3.97 | 0 | 87 | 42 | 79 | 5.10 | -71 | 7 | 07/16/2025 02:30 PM |
| 46470 | 15.1 | 3.97 | 0 | 86 | 42 | 77 | 5.10 | -71 | 7 | 07/16/2025 02:15 PM |
| 46469 | 15.1 | 3.99 | 0 | 86 | 42 | 77 | 5.10 | -70 | 7 | 07/16/2025 02:00 PM |
| 46468 | 15.1 | 3.97 | 0 | 85 | 42 | 77 | 5.10 | -71 | 7 | 07/16/2025 01:45 PM |